ACA2189 MMUN-CYHZ

Flight info

Callsign ACA2189
Flight time N/A
Altitude 33000
Route ROTGI2A ROTGI UM219 MYDIA M219 KNOST Q109 RAYVO/N0460F350 Q109 YURCK Q97 SAWED Q108 ZJAAY Q167 RIFLE Q430 ACK DCT TUSKY PEGGY5
Aircraft B738/M-SDE2E3FGHIRWXY/LB1

Departure

Time 2026-05-07 20:39
Airport Cancún International Airport (MMUN)

Arrival

Time N/A
Airport Halifax / Stanfield International Airport (CYHZ)
Time Latitude Longitude Altitude Speed Heading
2026-05-07 20:07 21.03713 -86.87185 28 ft 0 kts 33°
2026-05-07 20:27 21.03705 -86.87191 28 ft 4 kts 33°
2026-05-07 20:27 21.03682 -86.87207 28 ft 4 kts 28°
2026-05-07 20:28 21.03657 -86.87216 29 ft 4 kts
2026-05-07 20:28 21.03634 -86.87211 29 ft 4 kts 317°
2026-05-07 20:28 21.03626 -86.87201 29 ft 1 kts 304°
2026-05-07 20:28 21.03625 -86.87200 29 ft 0 kts 304°
2026-05-07 20:31 21.03629 -86.87207 29 ft 3 kts 303°
2026-05-07 20:32 21.03653 -86.87245 29 ft 9 kts 303°
2026-05-07 20:32 21.03670 -86.87306 29 ft 9 kts 250°
2026-05-07 20:32 21.03649 -86.87366 30 ft 9 kts 282°
2026-05-07 20:32 21.03679 -86.87423 30 ft 9 kts 304°
2026-05-07 20:33 21.03714 -86.87478 30 ft 9 kts 303°
2026-05-07 20:33 21.03752 -86.87539 30 ft 11 kts 303°
2026-05-07 20:33 21.03794 -86.87607 30 ft 11 kts 304°
2026-05-07 20:33 21.03839 -86.87679 30 ft 12 kts 303°
2026-05-07 20:34 21.03885 -86.87754 29 ft 12 kts 304°
2026-05-07 20:34 21.03935 -86.87831 29 ft 13 kts 304°
2026-05-07 20:34 21.03985 -86.87911 29 ft 13 kts 303°
2026-05-07 20:34 21.04034 -86.87989 29 ft 13 kts 304°
2026-05-07 20:35 21.04082 -86.88065 29 ft 12 kts 304°
2026-05-07 20:35 21.04128 -86.88139 29 ft 12 kts 303°
2026-05-07 20:35 21.04175 -86.88214 29 ft 12 kts 303°
2026-05-07 20:35 21.04220 -86.88287 29 ft 12 kts 303°
2026-05-07 20:36 21.04266 -86.88360 29 ft 12 kts 304°
2026-05-07 20:36 21.04318 -86.88441 29 ft 14 kts 304°
2026-05-07 20:36 21.04378 -86.88536 29 ft 16 kts 304°
2026-05-07 20:36 21.04441 -86.88637 29 ft 16 kts 304°
2026-05-07 20:37 21.04502 -86.88735 27 ft 15 kts 304°
2026-05-07 20:37 21.04561 -86.88828 29 ft 15 kts 303°
2026-05-07 20:37 21.04616 -86.88914 29 ft 13 kts 305°
2026-05-07 20:37 21.04636 -86.88995 29 ft 11 kts 247°
2026-05-07 20:38 21.04581 -86.89049 30 ft 10 kts 214°
2026-05-07 20:38 21.04531 -86.89073 31 ft 8 kts 175°
2026-05-07 20:38 21.04492 -86.89035 31 ft 8 kts 122°
2026-05-07 20:38 21.04409 -86.88901 32 ft 53 kts 123°
2026-05-07 20:39 21.04063 -86.88347 33 ft 124 kts 123°
2026-05-07 20:39 21.03479 -86.87419 124 ft 173 kts 124°
2026-05-07 20:39 21.02809 -86.86335 986 ft 175 kts 123°
2026-05-07 20:39 21.02154 -86.85237 1901 ft 179 kts 122°
2026-05-07 20:40 21.01463 -86.83983 2279 ft 211 kts 114°
2026-05-07 20:40 21.01300 -86.82342 2484 ft 233 kts 82°
2026-05-07 20:40 21.01751 -86.80646 2996 ft 244 kts 74°
2026-05-07 20:40 21.02319 -86.78839 3267 ft 264 kts 75°
2026-05-07 20:41 21.02873 -86.76969 4065 ft 263 kts 76°
2026-05-07 20:41 21.03415 -86.75098 4657 ft 263 kts 76°
2026-05-07 20:41 21.03963 -86.73211 4962 ft 267 kts 76°
2026-05-07 20:41 21.04711 -86.71420 4994 ft 270 kts 58°
2026-05-07 20:42 21.06013 -86.69942 5322 ft 278 kts 40°
2026-05-07 20:42 21.07618 -86.68750 6004 ft 282 kts 36°
2026-05-07 20:42 21.09275 -86.67604 6668 ft 285 kts 34°
2026-05-07 20:42 21.11136 -86.66835 6970 ft 292 kts
2026-05-07 20:43 21.13153 -86.66778 7021 ft 290 kts
2026-05-07 20:43 21.15189 -86.66817 7011 ft 295 kts
2026-05-07 20:43 21.17256 -86.66852 6985 ft 297 kts
2026-05-07 20:43 21.19290 -86.66871 6994 ft 295 kts
2026-05-07 20:44 21.21341 -86.66884 6999 ft 294 kts
2026-05-07 20:44 21.23385 -86.66894 7000 ft 294 kts
2026-05-07 20:44 21.25431 -86.66907 7032 ft 296 kts
2026-05-07 20:44 21.27502 -86.66918 7502 ft 300 kts
2026-05-07 20:45 21.29594 -86.66928 8234 ft 301 kts
2026-05-07 20:45 21.31691 -86.66938 8907 ft 303 kts
2026-05-07 20:45 21.33808 -86.66950 9538 ft 306 kts
2026-05-07 20:45 21.35939 -86.66960 10196 ft 308 kts
2026-05-07 20:46 21.38131 -86.66971 10468 ft 325 kts
2026-05-07 20:46 21.40423 -86.66979 10616 ft 343 kts